Temp
58 58 58 58 58 57 57 57 57 58 58 58 58 58 58 58 59 59 58 58 58 59 59 59 59 59 63 61 68 84 73 76 83 80 80 82 79 79 76 81 82 79 82 84 86 85 86
57 58 58 58 57 57 58 58 57 58 57 58 58 58 58 58 58 58 58 58 58 57 58 58 59 58 61 52 78 80 78 78 80 82 79 83 81 84 81 81 80 84 84 84 85 85 86
58 58 58 58 57 57 57 57 57 57 57 57 57 57 57 57 58 58 58 57 57 57 58 59 60 60 54 59 77 79 78 77 77 79 79 83 86 79 81 76 84 83 76 81 81 83 82
58 59 58 57 58 57 57 57 57 57 57 57 57 57 57 57 57 58 58 57 57 57 58 59 60 59 53 74 78 74 77 75 77 77 77 82 85 80 79 81 77 74 75 68 79 80 81
58 58 58 57 57 57 57 57 57 57 57 57 57 57 57 57 57 57 57 56 57 58 59 60 60 58 57 68 65 73 75 69 76 77 77 81 80 75 76 69 67 71 64 68 72 83 80
57 57 57 57 57 56 56 56 56 57 57 57 57 56 56 56 57 56 55 55 59 58 63 67 66 54 63 63 70 71 78 73 68 72 69 70 72 68 70 68 58 63 66 68 70 79 77
56 57 57 57 57 56 56 56 56 56 56 57 57 56 56 56 56 56 58 67 62 60 61 59 61 59 65 73 74 70 74 68 67 66 60 67 62 61 66 69 71 71 70 69 74 80 76
56 57 57 57 57 56 56 56 56 56 56 56 56 56 56 56 56 55 62 59 55 57 47 61 62 62 66 69 57 65 74 62 61 57 64 64 59 70 73 73 69 68 66 68 74 78 75
56 56 56 56 55 55 56 56 56 56 56 55 55 55 55 55 55 58 60 57 65 62 47 56 63 61 63 65 57 60 68 65 61 58 62 61 65 72 71 69 67 67 64 66 67 73 75
56 56 56 55 55 55 55 55 55 55 55 55 55 55 55 55 55 62 59 63 66 63 41 52 55 60 63 62 54 68 70 66 62 57 61 62 72 70 68 67 70 62 71 68 66 64 58
56 56 56 55 55 55 55 55 55 55 55 55 55 55 55 54 57 57 61 65 65 59 31 55 56 71 66 59 61 62 72 65 57 60 62 59 63 65 65 67 72 66 73 68 67 63 62
55 56 55 55 55 55 54 54 54 55 54 54 55 55 54 61 60 61 66 64 59 36 30 49 58 55 57 60 59 62 62 67 66 59 63 62 73 70 70 73 73 74 70 67 68 64 53
55 55 55 55 55 54 54 54 54 54 54 54 54 54 56 62 53 62 64 57 38 33 52 46 47 53 54 53 53 55 53 54 52 47 49 59 62 69 72 68 73 70 63 54 51 52 51
55 54 55 55 54 54 54 54 54 54 54 53 53 52 53 64 62 59 58 43 30 43 43 53 50 51 48 54 51 50 50 46 56 57 55 49 48 62 71 68 65 65 64 59 46 50 57
55 55 55 55 54 54 54 53 53 53 53 53 51 64 64 61 59 62 49 34 38 42 47 44 47 44 47 51 50 50 48 42 42 55 49 52 52 69 70 72 73 65 61 72 62 62 59
54 54 55 54 54 54 54 53 53 53 53 52 58 61 58 61 62 55 39 36 42 48 49 48 37 45 40 46 46 48 46 42 40 47 55 53 47 65 67 73 74 70 73 60 63 49 48
54 54 54 54 54 53 53 53 53 53 52 51 58 55 59 62 60 45 35 39 46 52 50 44 42 41 43 44 46 46 44 43 41 43 52 54 51 58 66 63 64 67 64 66 67 64 54
53 53 54 54 54 53 53 53 53 52 51 54 56 47 61 61 42 44 37 44 46 48 52 46 48 43 42 44 44 45 44 48 47 46 39 55 52 49 58 70 74 72 67 66 59 55 62
53 53 53 53 54 53 53 53 53 52 51 51 52 53 62 57 35 38 44 47 49 47 47 44 42 47 49 44 38 45 46 48 49 46 39 46 49 46 51 63 68 66 68 68 68 68 58
53 53 53 53 53 53 53 53 52 52 51 55 51 41 54 55 49 40 39 43 43 51 48 48 46 49 45 44 48 43 41 44 48 46 46 45 46 50 48 57 64 61 65 68 65 60 62
53 53 53 53 53 53 53 53 52 52 51 55 52 44 46 39 42 41 42 42 39 39 48 51 45 45 43 38 43 35 41 45 46 45 44 42 44 52 54 55 56 60 65 66 63 65 61
53 53 53 53 53 53 53 53 53 52 51 52 43 42 46 42 44 41 42 41 41 42 43 42 44 46 46 42 43 41 43 41 34 40 40 44 42 52 50 56 57 56 63 67 66 67 67
52 53 53 53 53 53 53 53 53 52 52 45 49 50 41 42 41 38 40 40 37 38 44 48 45 43 43 47 51 52 53 51 47 43 41 42 40 47 46 57 56 51 60 65 67 69 68
52 53 53 53 53 53 53 53 53 53 52 50 47 45 38 38 40 39 42 43 41 42 37 45 46 42 50 54 55 56 55 53 53 52 52 44 41 48 50 53 42 59 69 70 68 69 70
52 52 52 52 52 53 53 53 53 53 53 53 52 44 40 36 44 45 45 41 44 47 43 46 48 45 48 45 41 45 48 48 51 53 52 52 43 39 46 48 56 58 59 61 64 58 62
52 52 52 52 52 52 53 53 53 53 53 55 55 50 43 36 43 47 41 43 41 42 46 48 53 53 44 41 42 37 40 43 41 45 55 52 49 38 46 43 42 52 58 62 63 55 61
51 52 52 52 52 52 53 53 54 53 53 54 52 52 44 37 50 48 39 40 46 43 38 44 45 44 45 39 34 38 40 48 35 35 39 39 41 36 40 46 49 55 61 63 51 52 60
51 51 51 51 51 52 52 53 53 54 53 55 55 55 47 41 47 51 49 43 44 43 36 44 43 43 40 34 35 35 35 41 39 37 37 36 37 37 39 43 40 57 59 54 53 60 62
50 50 51 51 51 52 52 53 53 54 53 54 51 57 52 42 48 55 55 55 53 52 43 42 40 39 40 37 38 35 34 37 39 34 45 37 39 38 40 38 47 57 55 60 61 59 62
MSLP
1025.90 1025.63 1025.37 1025.14 1024.88 1024.62 1024.33 1024.04 1023.63 1023.24 1022.93 1022.56 1022.19 1021.84 1021.49 1021.13 1020.76 1020.29 1019.80 1019.32 1019.04 1018.71 1018.43 1018.38 1018.07 1018.13 1016.88 1014.70 1011.10 1010.11 1010.91 1010.54 1009.75 1009.71 1008.98 1008.54 1008.29 1007.51 1006.47 1006.05 1005.90 1004.83 1004.91 1004.80 1004.61 1004.73 1004.57
1026.12 1025.83 1025.53 1025.28 1025.00 1024.66 1024.27 1023.91 1023.61 1023.18 1022.85 1022.47 1022.06 1021.74 1021.32 1020.86 1020.37 1019.85 1019.45 1019.08 1018.74 1018.40 1018.18 1017.82 1017.78 1017.94 1016.49 1013.54 1010.71 1010.70 1010.95 1010.46 1009.95 1009.28 1008.95 1008.45 1007.58 1006.81 1005.98 1005.34 1004.60 1004.42 1004.32 1004.27 1004.46 1004.09 1003.95
1026.07 1025.78 1025.47 1025.13 1024.88 1024.56 1024.29 1023.92 1023.49 1023.12 1022.67 1022.24 1021.83 1021.44 1021.01 1020.56 1020.08 1019.57 1019.10 1018.71 1018.28 1017.78 1017.48 1017.37 1017.32 1017.09 1015.64 1012.34 1011.06 1011.03 1010.72 1010.44 1010.49 1009.90 1008.84 1008.39 1007.58 1007.03 1006.08 1005.58 1004.99 1004.49 1004.09 1003.73 1003.89 1003.89 1003.32
1026.11 1025.72 1025.43 1025.13 1024.76 1024.46 1024.16 1023.78 1023.42 1023.03 1022.58 1022.10 1021.58 1021.13 1020.71 1020.24 1019.71 1019.16 1018.64 1018.09 1017.47 1016.93 1016.42 1016.20 1016.24 1016.07 1013.44 1011.20 1010.88 1010.79 1010.32 1009.99 1010.16 1010.30 1009.68 1008.55 1007.90 1007.27 1006.22 1005.94 1005.22 1004.61 1004.06 1002.75 1002.81 1003.23 1003.48
1026.24 1025.86 1025.45 1025.11 1024.74 1024.33 1023.97 1023.57 1023.22 1022.82 1022.40 1021.93 1021.38 1020.93 1020.46 1019.95 1019.41 1018.78 1018.06 1017.24 1016.59 1015.99 1015.54 1015.42 1015.35 1014.88 1011.25 1010.89 1010.78 1010.13 1010.06 1009.62 1008.93 1009.25 1009.38 1008.72 1008.15 1006.95 1006.59 1005.92 1004.96 1003.49 1001.60 1001.45 1002.19 1002.19 1002.50
1026.59 1026.20 1025.76 1025.29 1024.89 1024.51 1024.05 1023.57 1023.12 1022.62 1022.10 1021.60 1021.07 1020.62 1020.14 1019.58 1018.98 1018.33 1017.36 1016.29 1015.57 1015.60 1014.90 1014.52 1014.10 1014.09 1010.74 1009.49 1009.46 1009.46 1008.90 1009.24 1008.94 1008.33 1008.56 1008.05 1007.11 1006.16 1005.53 1004.00 1000.40 1001.72 1001.54 1001.69 1000.84 1001.06 1001.81
1026.87 1026.35 1025.87 1025.33 1024.86 1024.43 1023.92 1023.41 1022.91 1022.43 1021.92 1021.34 1020.79 1020.27 1019.75 1019.21 1018.74 1018.23 1017.08 1014.95 1014.63 1013.95 1013.72 1012.43 1011.25 1010.66 1009.15 1008.83 1008.95 1008.71 1008.53 1008.84 1008.54 1007.77 1006.07 1006.22 1005.77 1003.10 1000.42 1001.93 1001.99 1001.73 1000.92 1000.30 1000.32 1001.07 1000.90
1026.80 1026.22 1025.74 1025.32 1024.85 1024.38 1023.83 1023.24 1022.73 1022.21 1021.63 1021.11 1020.58 1019.98 1019.41 1018.84 1018.31 1017.75 1016.69 1015.40 1015.85 1016.14 1013.84 1011.70 1010.41 1009.89 1009.26 1009.34 1008.85 1008.19 1008.30 1008.12 1007.40 1006.07 1005.96 1004.74 1002.49 998.46 1002.21 1002.00 1001.75 1001.58 1000.93 1000.13 1000.32 1000.61 1000.97
1026.76 1026.30 1025.84 1025.37 1024.89 1024.40 1023.81 1023.24 1022.69 1022.08 1021.51 1020.96 1020.47 1019.91 1019.24 1018.72 1018.03 1017.47 1016.44 1016.05 1016.09 1016.00 1014.05 1010.17 1008.92 1008.52 1008.19 1008.30 1007.83 1007.25 1007.44 1006.85 1006.09 1005.22 1003.84 1001.88 998.17 1002.28 1000.93 1000.85 1000.63 1000.25 1000.35 1000.79 1000.67 1000.78 1001.01
1026.91 1026.41 1025.96 1025.46 1024.93 1024.41 1023.83 1023.21 1022.59 1021.96 1021.34 1020.74 1020.09 1019.53 1019.06 1018.55 1017.80 1016.66 1015.78 1016.04 1016.00 1015.92 1013.36 1008.46 1007.94 1007.41 1007.62 1007.69 1007.04 1006.47 1006.10 1006.02 1005.13 1004.15 1003.56 1002.13 1000.41 999.87 999.91 999.09 999.37 998.89 1000.73 1001.37 1001.35 1001.46 1000.00
1027.10 1026.54 1026.04 1025.53 1024.97 1024.40 1023.82 1023.22 1022.56 1021.88 1021.23 1020.60 1019.97 1019.35 1018.80 1018.53 1017.55 1016.40 1015.96 1016.02 1015.87 1015.51 1011.44 1007.64 1007.16 1006.87 1006.52 1006.54 1005.93 1005.28 1005.37 1005.56 1004.30 1003.50 1003.07 999.74 999.77 999.06 998.01 996.16 999.07 998.37 1000.12 1000.92 1001.13 1000.96 1000.58
1027.15 1026.58 1026.08 1025.51 1024.94 1024.37 1023.77 1023.14 1022.45 1021.72 1020.97 1020.23 1019.54 1018.87 1018.35 1016.70 1016.95 1016.52 1015.96 1016.08 1015.75 1014.58 1009.67 1007.28 1006.63 1006.55 1005.89 1005.58 1005.70 1005.56 1005.11 1005.17 1004.69 1004.03 1002.29 1000.59 999.36 998.79 996.71 998.08 998.40 999.59 1000.10 1000.62 1000.52 1000.43 998.99
1027.17 1026.66 1026.04 1025.39 1024.85 1024.28 1023.67 1023.03 1022.35 1021.58 1020.71 1019.82 1018.99 1018.41 1017.81 1017.20 1016.65 1016.66 1016.11 1015.39 1014.45 1011.81 1009.04 1007.93 1007.85 1007.26 1006.60 1005.62 1005.78 1005.92 1005.17 1004.47 1003.96 1003.34 1001.78 1000.41 999.38 998.57 997.78 997.44 997.91 998.63 999.26 998.95 999.00 998.40 997.09
1027.17 1026.63 1026.01 1025.40 1024.76 1024.14 1023.52 1022.88 1022.14 1021.36 1020.45 1019.48 1018.54 1018.10 1017.75 1016.90 1017.03 1016.84 1016.09 1015.13 1012.96 1010.67 1009.96 1009.07 1008.64 1007.92 1006.58 1005.52 1005.71 1006.30 1005.59 1005.04 1003.61 1002.78 1001.11 1000.40 998.65 997.73 996.54 995.69 995.46 996.43 996.79 995.58 995.62 995.79 995.73
1027.09 1026.50 1025.88 1025.29 1024.69 1024.02 1023.35 1022.74 1022.04 1021.22 1020.30 1019.23 1018.19 1017.11 1016.35 1016.80 1017.10 1016.64 1015.69 1014.09 1012.13 1011.69 1011.06 1010.40 1009.54 1007.69 1006.16 1005.58 1006.02 1005.78 1005.92 1006.61 1006.77 1004.30 1002.23 999.35 997.75 996.19 996.18 995.62 995.20 995.30 995.14 995.10 994.80 995.20 994.64
1026.93 1026.38 1025.78 1025.21 1024.61 1023.91 1023.27 1022.62 1021.91 1021.06 1020.17 1019.18 1017.94 1016.88 1016.62 1017.08 1017.05 1016.66 1016.08 1014.04 1012.74 1012.33 1011.69 1010.86 1009.65 1008.37 1007.12 1006.09 1006.05 1005.55 1005.91 1007.74 1007.89 1006.99 1004.85 1001.00 998.30 995.72 995.76 995.21 994.66 994.07 995.20 995.02 994.57 994.17 993.88
1026.87 1026.34 1025.72 1025.11 1024.48 1023.83 1023.21 1022.55 1021.80 1021.02 1020.10 1018.94 1017.68 1016.16 1017.02 1017.20 1017.09 1016.76 1015.67 1014.22 1013.08 1012.45 1012.04 1011.12 1009.91 1009.05 1008.12 1007.06 1006.56 1006.15 1006.45 1007.93 1008.54 1007.86 1006.06 1003.18 1000.33 996.32 995.22 993.72 992.52 993.14 993.45 993.75 993.93 993.63 993.12
1026.78 1026.26 1025.61 1025.00 1024.36 1023.72 1023.07 1022.42 1021.81 1021.14 1020.24 1018.61 1017.44 1016.00 1016.95 1016.94 1016.53 1016.16 1015.59 1014.58 1013.89 1012.40 1011.77 1011.28 1010.45 1009.79 1008.80 1007.93 1006.93 1006.53 1006.22 1006.42 1008.37 1008.00 1006.71 1003.61 1001.21 997.45 994.52 993.78 993.02 992.84 992.65 993.46 992.87 993.40 993.31
1026.61 1026.09 1025.47 1024.83 1024.19 1023.66 1023.00 1022.39 1021.81 1021.15 1020.66 1019.74 1017.45 1017.00 1016.80 1016.75 1016.33 1015.98 1015.45 1014.13 1013.35 1012.68 1011.87 1011.46 1010.77 1009.73 1009.09 1008.16 1007.54 1006.75 1006.88 1007.85 1007.91 1007.90 1007.44 1005.62 1001.94 998.13 995.40 994.15 993.47 992.33 992.59 992.99 993.29 992.76 993.04
1026.47 1025.87 1025.31 1024.68 1024.02 1023.50 1022.89 1022.33 1021.74 1021.22 1020.64 1019.79 1018.06 1016.86 1016.17 1016.39 1016.72 1016.57 1015.57 1014.04 1013.18 1012.74 1011.92 1011.58 1010.68 1009.91 1009.29 1008.01 1007.49 1007.17 1007.77 1008.24 1008.16 1007.98 1007.62 1006.66 1003.04 998.54 995.37 993.74 993.07 992.35 992.20 992.62 993.15 992.55 992.27
1026.29 1025.65 1025.07 1024.53 1023.88 1023.31 1022.78 1022.14 1021.62 1021.22 1020.53 1019.70 1018.48 1017.70 1017.93 1016.83 1016.60 1016.69 1015.86 1014.91 1013.79 1013.02 1012.34 1011.31 1010.44 1009.81 1009.41 1008.66 1007.72 1007.67 1008.08 1007.82 1007.61 1007.78 1007.38 1006.01 1002.25 999.52 997.92 996.56 995.31 993.34 992.33 992.37 992.57 992.89 992.25
1026.02 1025.42 1024.86 1024.33 1023.73 1023.13 1022.58 1022.00 1021.48 1021.11 1020.52 1019.66 1019.23 1019.02 1018.42 1017.68 1016.96 1016.39 1015.50 1014.57 1013.80 1013.22 1012.75 1011.66 1010.64 1010.02 1009.63 1008.72 1008.02 1007.19 1007.21 1007.66 1007.93 1007.68 1006.87 1005.55 1002.63 999.77 998.30 997.30 995.83 994.16 992.66 992.38 992.69 993.12 992.90
1025.80 1025.19 1024.67 1024.14 1023.60 1022.99 1022.40 1021.86 1021.27 1020.89 1020.58 1020.35 1020.07 1019.64 1019.41 1017.75 1016.82 1016.40 1015.43 1014.98 1014.49 1014.13 1012.80 1011.76 1011.46 1010.87 1009.57 1008.56 1008.22 1007.66 1007.23 1006.96 1007.08 1006.76 1006.09 1004.98 1003.60 1000.45 997.96 996.69 995.80 994.60 993.25 992.53 992.90 993.23 993.11
1025.70 1024.96 1024.41 1023.88 1023.29 1022.75 1022.13 1021.54 1021.07 1020.74 1020.59 1020.36 1020.16 1020.04 1019.38 1017.55 1016.65 1016.03 1015.38 1014.89 1014.19 1013.66 1013.06 1012.10 1011.58 1011.08 1009.70 1009.47 1008.32 1006.70 1005.71 1005.58 1005.47 1005.11 1005.26 1004.49 1003.84 1001.06 997.51 996.97 995.55 994.06 993.37 993.26 993.28 993.83 994.04
1025.51 1024.81 1024.13 1023.64 1022.98 1022.37 1021.77 1021.20 1020.77 1020.45 1020.18 1019.84 1019.81 1019.98 1019.33 1017.83 1016.49 1015.26 1014.70 1014.70 1013.85 1012.98 1012.46 1011.61 1011.12 1011.70 1011.07 1010.19 1008.21 1005.26 1003.75 1003.80 1003.17 1003.53 1004.08 1004.32 1004.17 1002.04 998.46 996.65 995.45 995.39 995.86 994.98 994.41 995.92 996.34
1025.34 1024.67 1023.95 1023.35 1022.78 1022.08 1021.50 1020.91 1020.39 1020.04 1019.80 1019.41 1018.97 1019.53 1019.42 1018.53 1015.82 1015.19 1014.85 1014.36 1013.41 1012.82 1011.84 1011.24 1011.13 1010.89 1011.15 1009.97 1008.10 1005.71 1003.60 1003.16 1002.95 1002.83 1003.39 1003.97 1004.12 1003.59 1000.30 998.15 996.77 997.67 997.66 997.54 996.96 996.88 998.09
1025.07 1024.43 1023.78 1023.07 1022.49 1021.82 1021.21 1020.61 1020.03 1019.64 1019.38 1019.16 1018.64 1018.99 1019.02 1018.06 1015.69 1015.12 1014.83 1014.34 1013.95 1013.38 1012.92 1011.83 1011.49 1010.97 1011.02 1010.01 1008.54 1006.58 1004.88 1003.99 1004.13 1003.86 1004.01 1004.46 1004.35 1003.80 1002.11 999.51 999.07 999.69 998.64 998.24 998.13 999.47 999.40
1024.67 1024.06 1023.44 1022.80 1022.13 1021.50 1020.85 1020.27 1019.71 1019.17 1018.91 1018.69 1017.75 1018.15 1018.48 1017.56 1015.45 1014.83 1014.46 1014.15 1013.86 1013.68 1013.16 1012.49 1012.01 1011.44 1010.88 1010.33 1009.36 1008.34 1007.12 1005.79 1005.28 1005.32 1005.15 1005.05 1004.56 1004.15 1003.57 1001.48 1001.14 1001.00 999.62 999.14 1000.76 1000.29 1000.02
1024.22 1023.61 1022.97 1022.37 1021.72 1021.03 1020.43 1019.79 1019.24 1018.76 1018.44 1018.31 1017.46 1017.37 1018.06 1017.90 1015.35 1014.44 1013.79 1013.61 1013.56 1013.24 1013.58 1013.39 1012.91 1012.54 1011.64 1010.94 1010.19 1009.31 1008.34 1007.40 1006.37 1005.42 1005.64 1005.89 1005.71 1004.99 1004.60 1004.17 1003.82 1002.35 1002.10 1002.07 1001.92 1001.31 1000.60
Wind_Speed
15 15 15 15 15 15 15 14 14 14 15 15 14 15 15 15 15 15 16 17 17 16 15 14 12 11 10 9 15 8 12 7 7 7 21 26 27 24 28 23 25 31 25 25 22 24 23
14 14 14 14 14 13 15 15 15 15 14 14 14 15 15 16 16 17 17 17 16 16 16 14 12 9 12 18 5 10 12 11 10 8 11 21 15 21 23 27 29 25 28 29 27 26 25
13 14 14 14 15 15 15 15 16 16 16 16 16 15 16 17 17 17 18 17 17 19 19 16 13 8 12 21 10 9 15 14 8 11 14 13 22 12 15 21 25 25 27 27 22 25 27
14 14 15 14 15 16 16 16 17 18 17 17 16 16 16 17 18 19 20 19 20 23 22 16 12 9 11 10 11 17 17 18 16 16 13 12 13 22 18 13 14 20 25 26 25 22 20
15 14 16 17 16 17 18 18 18 18 18 18 18 16 17 18 18 20 21 23 25 17 10 6 9 9 12 8 10 14 15 16 14 17 15 11 14 19 15 21 19 25 26 32 26 24 23
17 16 16 16 16 15 16 16 17 18 18 18 17 16 17 18 19 20 24 23 11 7 6 7 5 7 9 9 3 5 7 10 11 15 14 19 14 16 21 21 31 26 26 26 28 20 17
16 16 15 17 17 18 18 18 19 19 19 20 20 19 18 18 18 17 16 8 6 8 9 12 8 16 20 14 7 12 4 8 10 17 24 24 21 29 43 33 25 26 26 31 25 24 24
16 17 18 18 19 20 20 19 20 20 20 20 21 20 19 17 18 15 10 8 4 7 13 18 25 25 25 22 13 19 14 11 12 21 24 21 31 46 28 29 29 29 28 30 24 18 22
17 19 19 20 20 20 21 20 20 19 19 19 19 19 20 19 18 6 10 6 3 9 9 17 13 14 13 12 16 22 18 19 19 19 26 33 40 26 28 31 32 31 31 24 25 18 18
17 18 19 20 18 19 22 22 22 21 21 20 19 18 17 17 12 8 7 2 7 6 8 9 5 6 7 6 7 19 12 21 20 24 22 30 31 26 32 33 31 33 24 24 24 20 23
17 17 17 17 18 19 20 21 22 22 21 20 19 19 17 10 10 6 6 6 8 5 9 7 7 5 4 7 8 8 9 15 27 21 16 29 20 35 29 43 29 28 17 22 23 22 23
17 18 18 17 19 19 19 19 21 21 22 21 20 20 16 8 5 9 8 6 5 6 8 0 4 3 7 7 3 5 5 12 13 27 26 28 14 22 40 20 28 21 18 21 18 16 22
17 19 19 18 19 19 19 20 20 21 22 22 23 21 9 3 5 7 4 5 7 8 8 1 9 9 15 15 3 10 7 12 12 18 27 25 29 22 21 30 24 23 23 11 14 15 15
18 19 20 19 19 20 20 20 21 21 22 24 22 16 4 3 2 5 6 5 7 6 7 16 14 18 19 12 2 7 10 8 15 23 19 23 23 30 22 30 23 29 27 14 18 15 13
20 20 20 22 20 20 20 21 21 22 22 24 23 3 3 6 5 4 5 5 6 11 9 12 17 17 15 6 4 8 3 3 7 17 21 21 29 28 26 24 29 29 30 23 8 4 9
20 20 21 21 20 21 20 22 22 23 23 22 6 3 8 7 2 1 2 5 6 6 13 14 16 9 14 12 8 7 1 5 7 13 15 10 13 25 33 25 26 29 23 24 14 16 12
20 21 20 20 21 21 21 21 22 22 23 20 4 4 6 4 3 1 3 6 12 12 14 9 13 13 15 14 13 13 5 8 4 9 16 14 9 16 25 25 27 20 24 21 16 12 13
20 21 21 20 20 20 20 22 21 21 21 10 4 2 4 4 3 2 5 11 8 12 11 11 9 6 8 10 12 12 8 2 9 3 10 6 9 11 26 25 23 24 21 25 14 20 10
19 20 20 19 19 18 17 17 21 20 16 6 7 3 3 5 5 6 11 15 10 14 15 7 11 6 13 11 6 5 6 12 11 7 4 4 12 12 12 25 23 27 22 26 15 9 18
20 20 20 20 19 18 17 16 18 17 15 7 5 4 1 2 4 8 12 8 12 10 10 12 13 12 12 10 7 7 9 7 5 7 9 8 10 17 6 21 17 26 28 26 23 12 13
21 21 20 20 19 18 18 16 17 18 15 7 4 2 4 5 5 11 11 8 12 9 8 14 6 7 10 8 17 3 7 13 7 5 5 5 12 19 13 8 7 13 25 22 26 19 16
20 21 20 20 19 18 18 18 16 16 14 4 4 4 4 10 9 11 6 8 12 14 12 10 13 17 17 16 13 17 13 6 2 5 6 5 6 13 16 14 8 8 13 26 23 22 21
19 19 21 20 19 18 17 18 16 13 6 1 1 2 3 7 6 7 6 10 12 16 10 9 13 17 15 12 14 18 17 14 14 13 7 4 5 10 17 16 7 11 12 18 21 20 21
19 20 20 20 19 17 16 17 15 13 4 2 1 2 3 6 6 9 14 13 16 16 12 15 14 13 9 20 21 19 19 19 18 17 13 8 7 9 13 12 12 10 2 13 17 20 20
20 21 21 20 20 19 17 16 15 13 7 4 2 2 2 7 10 14 11 15 14 11 12 14 10 7 14 14 8 9 8 8 14 18 16 13 5 6 8 12 8 9 9 4 9 8 7
22 22 21 20 20 20 18 16 14 13 9 5 3 4 2 5 4 12 14 13 11 10 8 8 13 6 4 4 5 7 4 3 3 3 12 12 7 5 6 15 14 10 8 5 4 9 8
21 22 23 22 21 21 20 18 16 13 10 5 3 6 3 5 10 7 6 9 8 7 6 11 10 4 2 3 3 6 5 3 2 3 11 7 5 8 6 8 9 12 10 4 12 7 9
20 21 22 22 22 21 20 19 17 14 11 5 5 8 3 4 13 13 11 12 9 9 4 9 9 2 4 3 3 4 4 5 5 5 4 5 6 5 4 7 7 16 2 5 9 7 9
19 21 21 21 21 21 21 19 17 14 10 6 5 4 5 5 10 18 18 18 19 19 11 3 5 6 3 4 2 3 3 3 7 2 3 1 4 3 5 4 8 4 10 10 9 9 11
Wind_Direction
13 13 12 11 6 4 1 354 351 349 349 345 342 338 335 331 327 323 320 320 316 316 309 305 302 306 295 234 245 138 336 343 322 175 201 203 213 217 232 237 239 243 251 252 249 264 267
14 12 11 8 6 360 357 353 350 349 346 339 337 336 331 328 325 322 319 316 309 301 299 294 285 278 263 253 321 293 292 297 276 244 213 215 226 227 243 243 244 246 246 249 257 256 260
16 14 10 12 7 2 359 350 350 346 343 341 337 334 334 330 325 319 317 311 304 295 290 279 261 243 259 252 274 284 282 281 271 270 237 217 227 229 222 249 255 259 254 256 246 252 252
9 12 15 8 4 2 356 350 350 345 342 340 336 336 336 333 329 324 318 309 300 297 291 272 239 224 259 254 264 262 266 262 244 245 252 277 229 239 242 265 266 250 243 249 230 230 243
12 4 6 7 0 359 354 350 346 342 339 337 334 333 333 331 329 325 316 304 300 297 298 220 195 215 271 111 232 248 241 249 250 223 230 241 230 228 220 231 245 229 237 235 244 241 236
9 6 4 3 0 357 350 345 343 339 337 334 331 330 328 326 325 324 318 301 296 250 206 193 250 218 234 242 214 219 254 226 244 215 203 214 209 213 222 211 225 228 230 243 259 239 222
4 5 0 3 0 357 351 349 347 345 343 338 336 332 329 329 328 323 312 284 233 199 215 261 265 244 290 277 239 259 225 211 207 226 204 195 203 214 217 220 236 246 243 246 244 243 242
4 3 1 0 358 355 352 349 347 344 339 340 339 335 333 330 327 321 292 332 28 342 295 271 256 261 264 274 276 267 258 228 199 221 212 190 217 220 220 223 228 236 242 247 255 246 242
2 2 359 357 354 352 351 348 346 342 340 337 332 332 332 330 320 269 328 294 355 329 263 284 258 256 256 235 247 256 238 227 233 228 214 219 223 220 220 222 226 226 233 239 250 252 248
1 359 356 353 350 349 348 347 344 342 339 334 329 327 327 328 275 347 295 172 295 326 277 253 201 198 180 220 226 234 246 222 221 233 228 234 236 215 221 226 218 231 221 242 251 252 252
356 354 353 348 349 347 343 341 341 338 332 328 324 323 322 315 303 284 351 301 314 245 276 93 133 85 195 235 329 93 167 228 238 217 221 226 223 230 224 225 217 233 223 230 241 250 266
356 353 350 347 349 345 342 338 336 334 330 325 322 323 323 265 232 276 291 296 257 233 246 327 125 290 284 205 302 321 272 210 260 240 240 241 231 228 232 223 220 219 217 224 234 242 248
355 351 351 346 346 342 340 338 335 333 331 329 324 324 307 339 333 344 286 252 234 251 17 308 342 325 303 282 301 297 302 280 219 212 227 229 238 248 240 217 204 187 192 197 217 221 253
352 349 347 345 344 343 341 338 337 336 334 332 327 318 138 350 288 286 239 218 265 348 291 322 325 308 282 290 145 297 285 319 292 237 223 222 226 220 213 216 190 192 190 210 215 228 242
347 345 345 345 344 343 342 340 340 339 338 337 312 165 357 28 317 237 257 240 338 342 332 316 305 270 270 216 251 271 277 316 292 318 251 211 232 190 227 213 199 190 214 214 247 273 262
344 343 344 344 344 345 345 343 343 342 341 336 315 269 43 38 329 266 290 299 315 304 304 306 294 281 287 293 293 288 231 125 311 327 308 292 265 225 197 206 205 197 194 202 209 225 217
345 343 343 346 346 348 348 346 343 343 341 323 301 256 54 33 262 195 333 326 318 323 319 311 308 304 300 286 284 283 272 127 132 306 300 277 258 218 192 204 190 187 198 210 215 236 203
344 341 341 344 346 347 348 348 343 345 342 317 318 300 54 293 294 351 326 325 320 303 326 300 284 290 282 296 281 263 262 235 170 269 303 269 278 261 213 201 215 199 200 198 199 193 240
346 342 340 340 344 344 344 346 345 342 356 324 331 302 111 293 350 343 316 305 285 302 322 322 297 278 312 292 295 283 321 113 168 207 294 351 227 228 224 200 206 209 209 195 214 190 202
347 344 342 342 345 346 343 343 336 342 346 301 320 325 21 13 354 325 336 327 328 318 315 297 300 287 325 314 266 291 345 329 291 246 238 250 261 245 215 189 192 205 201 192 204 207 186
346 345 344 343 346 348 344 337 335 339 339 287 9 19 354 312 340 311 307 298 309 340 314 315 293 312 331 312 317 119 304 320 294 208 240 256 243 224 246 305 307 268 206 198 205 215 227
345 345 345 345 342 346 342 335 334 341 327 310 351 352 338 295 300 323 309 299 315 330 310 300 299 328 323 302 295 301 312 307 318 340 293 257 285 252 239 240 241 238 243 205 204 206 227
342 342 344 346 342 342 338 333 334 337 336 310 17 273 274 289 300 311 318 319 302 308 284 307 308 305 298 325 327 305 294 286 266 281 290 311 302 233 226 212 210 223 210 217 204 208 219
339 341 343 346 342 339 341 333 333 336 347 267 241 267 267 288 325 299 302 307 313 311 292 292 295 282 324 326 303 277 251 248 251 252 246 268 312 277 235 165 213 86 28 206 211 208 222
336 338 340 343 341 337 339 336 335 332 330 271 187 232 257 286 309 292 324 315 298 311 300 298 321 281 300 299 279 266 209 246 232 223 222 234 259 288 241 195 130 110 39 335 205 133 0
331 334 335 339 340 336 336 337 333 327 326 281 242 198 264 293 264 329 307 293 306 323 308 329 329 329 310 280 268 276 298 333 109 190 193 210 221 294 264 212 207 43 357 332 266 162 21
326 329 331 334 338 336 336 336 334 326 319 291 260 186 236 264 272 318 292 303 296 310 287 307 332 298 203 293 277 294 291 282 299 201 169 178 211 232 262 235 100 9 343 186 215 71 352
323 324 327 328 331 332 334 333 330 324 321 291 273 178 221 261 283 276 289 283 276 276 276 318 310 66 291 306 303 350 287 343 279 122 157 192 188 183 243 259 147 360 23 329 23 357 353
321 322 323 325 326 326 327 328 328 322 315 282 269 153 214 237 275 302 286 273 268 276 288 262 290 315 295 309 344 307 302 301 326 27 123 137 354 351 3 35 331 312 58 49 11 356 350